Regional Weather Roundup
Issued by NWS

Home | Current Version | Previous Version | Graphics & Text | Print | Product List | Glossary Off
Versions: 1 2 3 4 5 6 7 8 9 10 11 12 13 14 15 16 17 18 19 20 21 22 23 24 25 26 27 28 29 30 31 32 33 34 35 36 37 38 39 40 41 42 43 44 45 46 47 48 49 50

000
ASUS43 KDTX 300501
RWRMI
MICHIGAN HOURLY REGIONAL WEATHER ROUNDUP
NATIONAL WEATHER SERVICE DETROIT/PONTIAC MI
100 AM EDT THU JUL 30 2015

NOTE: "FAIR" INDICATES FEW OR NO CLOUDS BELOW 12,000 FEET WITH NO
SIGNIFICANT WEATHER AND/OR OBSTRUCTION TO VISIBILITY.

MIZ047>049-052>055-059>063-066>070-074>076-081>083-300600-
SOUTHEAST LOWER MICHIGAN

CITY           SKY/WX    TMP DP  RH WIND       PRES   REMARKS
ADRIAN         CLEAR     65  59  81 W3        29.97S
ALMA           CLEAR     66  56  71 SW5       29.93R
ANN ARBOR      CLEAR     65  58  78 W7        29.95R
BAD AXE        CLEAR     67  57  70 SW6       29.89S
CARO           CLEAR     62  57  82 SW5       29.90S
DETROIT CITY   CLEAR     72  57  59 W6        29.93R
DETROIT        PTCLDY    71  58  63 SW5       29.94S
FLINT          CLEAR     69  56  62 SW7       29.93S
GROSSE ILE     CLEAR     72  59  64 W3        29.93R
HILLSDALE      CLEAR     68  58  70 W7        29.99S
HOWELL         PTCLDY    66  55  69 SW5       29.95S

CITY           SKY/WX    TMP DP  RH WIND       PRES   REMARKS
JACKSON        CLEAR     66  57  72 W7        29.97S
LAMBERTVILLE   CLEAR     68  61  79 CALM      29.97R
LANSING        CLEAR     69  57  65 W8        29.95S
LAPEER         FAIR      68  57  68 W3        29.92S
MASON          CLEAR     66  56  69 CALM      29.95F
MONROE         CLEAR     68  61  78 W3        29.94S
MT. CLEMENS    CLEAR     69  60  71 W7        29.90S
PONTIAC        CLEAR     70  59  68 W10       29.93S
PORT HOPE        N/A     71  59  65 SW7       29.85S
PORT HURON     CLEAR     61  61 100 CALM      29.91S
TRI CITIES     CLEAR     68  56  65 W7        29.91R
MIDLAND        FAIR      69  55  60 SW6       29.89S
TROY           CLEAR     68  61  77 MISG      29.94S
SAGINAW HB     CLEAR     66  57  72 SW7       29.89S
$$
MIZ043>046-050>051-056>058-064>065-071>073-077>080-300600-
SOUTHWEST LOWER MICHIGAN

CITY           SKY/WX    TMP DP  RH WIND       PRES   REMARKS
BATTLE CREEK   CLEAR     70  57  63 W10       29.98S
BENTON HARBOR  CLEAR     72  62  71 W12       29.99R
BIG RAPIDS     CLEAR     67  54  62 W5        29.92S
COLDWATER      CLEAR     64  56  75 SW3       29.99S
FREMONT        FAIR      68  56  66 W6        29.93S
HOLLAND        CLEAR     75  59  57 W10       29.97R
GRAND RAPIDS   CLEAR     71  59  65 W10       29.95S
IONIA          FAIR      67  58  72 SW7       29.94R
KALAMAZOO      CLEAR     69  57  65 W7        29.98S
LUDINGTON      PTCLDY    76  64  65 W6        29.92S
MARSHALL       CLEAR     64  56  76 SW5       29.97S
MOUNT PLEASANT CLEAR     71  55  58 W6        29.90S
MUSKEGON       CLEAR     74  55  51 W13       29.94R
SOUTH HAVEN    CLEAR     74  60  62 W10       29.98R
$$
MIZ016>042-300600-
NORTHERN LOWER MICHIGAN

CITY           SKY/WX    TMP DP  RH WIND       PRES   REMARKS
ALPENA         CLEAR     72  54  53 W6        29.83S
BEAVER ISLAND  CLOUDY    72  58  62 SW9       29.82S
BELLAIRE       CLOUDY    73  60  62 CALM      29.86S
CADILLAC       PTCLDY    65  57  73 W5        29.91S
CHARLEVOIX     CLOUDY    72  60  67 SW7       29.87S
FRANKFORT      PTCLDY    75  59  57 W9G17     29.88S
GAYLORD        CLOUDY    71  56  58 SW6       29.87S
GRAYLING       MOCLDY    65  55  68 SW3       29.89S
HARBOR SPRINGS CLOUDY    71  64  79 SW3       29.83S
HOUGHTON LAKE  CLEAR     71  57  61 W8        29.90S
MANISTEE       CLEAR     73  54  49 W10       29.90S
OSCODA         CLEAR     67  54  61 SW9       29.84S
PELLSTON       CLOUDY    68  60  75 SW3       29.82F
ROGERS CITY    CLOUDY    70  62  74 CALM      29.83S
TRAVERSE CITY  PTCLDY    73  57  57 SW6       29.85S
$$
MIZ007>008-015-300600-
EASTERN UPPER MICHIGAN

CITY           SKY/WX    TMP DP  RH WIND       PRES   REMARKS
KINROSS        MOCLDY    66  57  72 W3        29.79S
MACKINAC ISLAN CLOUDY    69  57  64 SW7       29.80S
MUNISING         N/A     74  56  53 S7        29.77F
$$
MIZ004>006-011>014-085-300600-
CENTRAL UPPER MICHIGAN

CITY           SKY/WX    TMP DP  RH WIND       PRES   REMARKS
ESCANABA       CLOUDY    72  55  56 SW9       29.81S
MENOMINEE      CLEAR     70  52  52 W7        29.86S
SAWYER-GWINN   PTCLDY    69  55  61 SW8       29.80S
$$
MIZ001>003-009>011-084-300600-
WESTERN UPPER MICHIGAN

CITY           SKY/WX    TMP DP  RH WIND       PRES   REMARKS
IRON MOUNTAIN  CLEAR     71  54  54 W9        29.84R
HOUGHTON       CLOUDY    72  52  49 W24G35    29.73S
COPPER HARBOR    N/A     74  52  46 NW16G31   29.68F
IRONWOOD       CLEAR     68  54  60 W13       29.82S
$$

ABBREVIATIONS USED IN REMARKS
   TC - TEMPERATURE IN CELSIUS
  WCI - WIND CHILL INDEX
   HX - HEAT INDEX
  VSB - VISIBILITY



USA.gov is the U.S. government's official web portal to all federal, state and local government web resources and services.